    Orbital elements:
    S/2006 S 1
    Epoch 2006 Mar. 6.0 TT = JDT 2453800.5                  MPC
    M 241.76637              (2000.0)            P               Q
    n   0.37021527     Peri.  138.78765     -0.90611444     -0.39787898
    a   0.1265409      Node   340.69785     -0.39956302     +0.91652492
    e   0.1302807      Incl.  154.23236     +0.13894611     +0.04091929
    P   2.66           H   15.5           P/d   972.41
    Residuals in seconds of arc
    K0614  568  0.1-  0.5-    K0621  568  1.4+  0.5+    K0622  568  1.4+  0.6+
    K0614  568  0.1-  0.2-    K0621  568  1.7-  0.6+    K0622  568  0.1+  0.1-
    K0615  568  0.2-  0.6-    K0621  568  1.0+  0.4+    K062P  568  0.1+  0.3-
    K0615  568  0.1-  0.3-    K0621  568  1.8-  0.8+    K062P  568  0.0   0.0
    K0616  568  0.2-  0.4-    K0622  568  0.9+  0.1+    K064U  568  0.0   0.3-
    K0616  568  0.2-  0.2-    K0622  568  0.3-  0.2+    K064U  568  0.4-  0.4-
    
    S/2006 S 2
    Epoch 2006 Mar. 6.0 TT = JDT 2453800.5                  MPC
    M 209.27704              (2000.0)            P               Q
    n   0.28945615     Peri.  181.83149     -0.32688644     +0.80761119
    a   0.1491003      Node   290.64218     +0.87361044     +0.45632692
    e   0.3405238      Incl.  148.36555     +0.36048586     -0.37353702
    P   3.41           H   14.9           P/d  1243.71
    Residuals in seconds of arc
    K0614  568  0.1+  0.1+    K0616  568  0.4-  0.3-    K062P  568  0.2-  0.0
    K0614  568  0.0   0.2+    K0621  568  0.1-  0.1+    K062P  568  0.3+  0.2+
    K0615  568  0.3+  0.3+    K0621  568  0.1+  0.1-    K064U  568  0.1+  0.2+
    K0615  568  0.2-  0.1-    K0622  568  0.0   0.2-    K064U  568  0.1-  0.2-
    K0616  568  0.2+  0.1-    K0622  568  0.1-  0.1-
    
    S/2006 S 3
    Epoch 2006 Mar. 6.0 TT = JDT 2453800.5                  MPC
    M 100.63549              (2000.0)            P               Q
    n   0.31513556     Peri.  190.85619     +0.85352044     +0.41375731
    a   0.1408863      Node   220.50793     +0.50710877     -0.51990067
    e   0.4709957      Incl.  150.81787     +0.11976456     -0.74733405
    P   3.13           H   15.6           P/d  1142.37
    Residuals in seconds of arc
    K0615  568  0.6+  0.2-    K0621  568  0.1-  0.2-    K0638  568  1.5+  0.7-
    K0615  568  0.5-  0.4+    K0621  568  0.4+  0.4-    K0638  568  1.8-  0.2+
    K0616  568  0.2+  0.1+    K0622  568  0.3-  0.0     K064U  568  0.1+  0.3+
    K0616  568  0.1-  0.3+    K0622  568  0.1-  0.1+    K064U  568  0.1+  0.2+
    
    S/2006 S 4
    Epoch 2006 Mar. 6.0 TT = JDT 2453800.5                  MPC
    M 105.50202              (2000.0)            P               Q
    n   0.39710725     Peri.  141.50093     -0.92004240     -0.39030617
    a   0.1207615      Node   344.36718     -0.38362364     +0.87946114
    e   0.3735237      Incl.  172.66665     -0.07971752     +0.27241366
    P   2.48           H   15.3           P/d   906.56
    Residuals in seconds of arc
    K0615  568  0.1+  0.0     K0621  568  0.1+  0.2-    K064U  568  0.0   0.1+
    K0615  568  0.0   0.2+    K0622  568  0.2+  0.2-    K064U  568  0.0   0.0
    K0616  568  0.4-  0.0     K0622  568  0.2-  0.4+    K0651  568  0.0   0.0
    K0616  568  0.3+  0.1+    K0638  568  0.0   0.1+    K0651  568  0.0   0.1+
    K0621  568  0.1-  0.2-    K0638  568  0.0   0.1-
    
    S/2006 S 5
    Epoch 2006 Mar. 6.0 TT = JDT 2453800.5                  MPC
    M 221.67895              (2000.0)            P               Q
    n   0.27389676     Peri.   43.96697     +0.50561245     -0.86036961
    a   0.1546948      Node   343.99043     -0.84183371     -0.50826812
    e   0.1390172      Incl.  166.54167     -0.18887046     -0.03778436
    P   3.60           H   15.4           P/d  1314.36
    Residuals in seconds of arc
    K0615  568  0.0   0.0     K0621  568  0.1-  0.0     K0638  568  0.0   0.5-
    K0615  568  0.0   0.2-    K0621  568  0.0   0.1+    K0638  568  0.0   0.5-
    K0616  568  0.0   0.0     K0622  568  0.1+  0.4+    K064U  568  0.1+  0.2+
    K0616  568  0.0   0.0     K0622  568  0.1-  0.3+    K064U  568  0.1-  0.2+
    
    S/2006 S 6
    Epoch 2006 Mar. 6.0 TT = JDT 2453800.5                  MPC
    M 269.16659              (2000.0)            P               Q
    n   0.38144317     Peri.  249.87579     -0.64274273     +0.75876838
    a   0.1240453      Node    20.99934     +0.76548299     +0.63065795
    e   0.1917531      Incl.  162.86100     +0.03029154     +0.16291438
    P   2.58           H   15.7           P/d   943.78
    Residuals in seconds of arc
    K0615  568  0.2+  0.1+    K0621  568  0.2-  0.1-    K0637  568  0.1+  0.1-
    K0615  568  0.2+  0.2-    K0622  568  0.2+  0.2-    K064T  568  0.1+  0.2+
    K0616  568  0.2-  0.8+    K0622  568  0.1-  0.4-    K064T  568  0.1-  0.2+
    K0621  568  0.1-  0.1-    K0637  568  0.0   0.1-
    
    S/2006 S 7
    Epoch 2006 Mar. 6.0 TT = JDT 2453800.5                  MPC
    M  50.79885              (2000.0)            P               Q
    n   0.29065661     Peri.  329.06665     +0.30471961     -0.92641268
    a   0.1486895      Node   257.59411     -0.82099907     -0.37318858
    e   0.3679795      Incl.  166.91284     -0.48281103     +0.04989812
    P   3.39           H   15.7           P/d  1238.57
    Residuals in seconds of arc
    K0615  568  0.4-  0.0     K0621  568  0.2-  0.1+    K0637  568  0.1-  0.1-
    K0615  568  0.3+  0.1+    K0621  568  0.3+  0.2+    K0637  568  0.3-  0.1-
    K0616  568  0.2-  0.2-    K0622  568  0.4+  0.2+    K064T  568  0.2+  0.0
    K0616  568  0.2+  0.0     K0622  568  0.1+  0.4-    K064T  568  0.1-  0.1+
    
    S/2006 S 8
    Epoch 2006 Mar. 6.0 TT = JDT 2453800.5                  MPC
    M 230.20770              (2000.0)            P               Q
    n   0.41420485     Peri.  205.79739     -0.05258092     +0.92827413
    a   0.1174150      Node   296.82817     +0.97270159     +0.13105260
    e   0.4177735      Incl.  155.63375     +0.22602402     -0.34804073
    P   2.38           H   15.4           P/d   869.14
    Residuals in seconds of arc
    K0615  568  0.1-  0.2+    K0621  568  0.1-  0.0     K0636  568  0.2+  0.1-
    K0615  568  0.1-  0.3+    K0621  568  0.1-  0.1-    K0636  568  0.1+  0.2-
    K0616  568  0.2-  0.2-    K0622  568  0.2-  0.3-    K064U  568  0.0   0.2+
    K0616  568  0.6+  0.2+    K0622  568  0.0   0.1-    K064U  568  0.1-  0.1+
    
    Brian G. Marsden             (C) Copyright 2006 MPC           M.P.E.C. 2006-M45
    

    Read MPEC 2006-M44 Read MPEC 2006-M46


    MPEC number:

    Enter an MPEC number in one of the following forms:

    • 1997-B01 (the full form)
    • J97B01 (the packed version of the full form)
    • B01 (the abbreviated form)